This is the latest recevied weather packets stored in our database for station/object LU3HGB-WX. If no packets are shown the sender has not sent any weather packets the latest 10 day(s).
| Time | Temp. | Humidity | Pressure | Rain* | Wind** | Luminosity | Snow |
|---|---|---|---|---|---|---|---|
| 1777916559 | 22.78° C | 39% | 1010 hPa | 0 mm | - | 646 W/m² | - |
| 1777916260 | 22.78° C | 41% | 1010 hPa | 0 mm | - | 651 W/m² | - |
| 1777915960 | 22.78° C | 37% | 1010 hPa | 0 mm | - | 660 W/m² | - |
| 1777915660 | 22.78° C | 41% | 1010 hPa | 0 mm | - | 669 W/m² | - |
| 1777915359 | 22.78° C | 41% | 1010 hPa | 0 mm | - | 675 W/m² | - |
| 1777915059 | 22.78° C | 42% | 1010 hPa | 0 mm | - | 681 W/m² | - |
| 1777914760 | 22.78° C | 39% | 1010 hPa | 0 mm | - | 687 W/m² | - |
| 1777914460 | 22.22° C | 44% | 1010 hPa | 0 mm | - | 690 W/m² | - |
| 1777914160 | 21.67° C | 47% | 1010 hPa | 0 mm | - | 696 W/m² | - |
| 1777913860 | 21.67° C | 43% | 1011 hPa | 0 mm | - | 702 W/m² | - |
| 1777913560 | 21.67° C | 44% | 1011 hPa | 0 mm | - | 703 W/m² | - |
| 1777913260 | 21.67° C | 43% | 1011 hPa | 0 mm | - | 707 W/m² | - |
| 1777912961 | 21.67° C | 44% | 1011 hPa | 0 mm | - | 711 W/m² | - |
| 1777912662 | 21.67° C | 44% | 1011 hPa | 0 mm | - | 712 W/m² | - |
| 1777912360 | 21.67° C | 43% | 1011 hPa | 0 mm | - | 714 W/m² | - |
| 1777912060 | 21.11° C | 46% | 1011 hPa | 0 mm | - | 716 W/m² | - |
| 1777911760 | 21.11° C | 44% | 1011 hPa | 0 mm | - | 717 W/m² | - |
| 1777911460 | 20.56° C | 48% | 1011 hPa | 0 mm | - | 716 W/m² | - |
| 1777911164 | 20.56° C | 47% | 1011 hPa | 0 mm | - | 714 W/m² | - |
| 1777910860 | 20° C | 49% | 1011 hPa | 0 mm | - | 715 W/m² | - |
| 1777910560 | 20° C | 46% | 1012 hPa | 0 mm | - | 715 W/m² | - |
| 1777910260 | 19.44° C | 46% | 1012 hPa | 0 mm | - | 710 W/m² | - |
| 1777909959 | 19.44° C | 50% | 1012 hPa | 0 mm | - | 707 W/m² | - |
| 1777909660 | 18.89° C | 48% | 1012 hPa | 0 mm | - | 704 W/m² | - |
| 1777909360 | 18.89° C | 51% | 1012 hPa | 0 mm | - | 701 W/m² | - |
* Rain latest hour (hover to see other rain measurements)
** Current wind speed in m/s (hover to see current wind gust speed)